Time,TemperatureF,DewpointF,PressureIn,WindDirection,WindDirectionDegrees,WindSpeedMPH,WindSpeedGustMPH,Humidity,HourlyPrecipIn,Conditions,Clouds,dailyrainin,SoftwareType,DateUTC
2014-08-21 00:13:00,82.2,78.0,30.08,ESE,121,0.0,-999.0,86,-99.99,,,0.00,weatherlink.com 1.10,2014-08-21 04:13:00,
2014-08-21 00:28:00,81.6,77.0,30.08,ESE,121,0.0,-999.0,87,-99.99,,,0.00,weatherlink.com 1.10,2014-08-21 04:28:00,
2014-08-21 00:43:00,80.9,77.0,30.07,ESE,121,0.0,-999.0,88,-99.99,,,0.00,weatherlink.com 1.10,2014-08-21 04:43:00,
2014-08-21 00:58:00,80.5,77.0,30.07,ESE,121,0.0,-999.0,89,-99.99,,,0.00,weatherlink.com 1.10,2014-08-21 04:58:00,
2014-08-21 01:13:00,81.2,78.0,30.07,ESE,120,0.0,-999.0,90,-99.99,,,0.00,weatherlink.com 1.10,2014-08-21 05:13:00,
2014-08-21 01:28:00,80.8,78.0,30.07,ESE,119,0.0,-999.0,91,-99.99,,,0.00,weatherlink.com 1.10,2014-08-21 05:28:00,
2014-08-21 01:43:00,80.4,78.0,30.07,ESE,121,0.0,-999.0,91,-99.99,,,0.00,weatherlink.com 1.10,2014-08-21 05:43:00,
2014-08-21 01:58:00,80.5,78.0,30.07,ESE,119,0.0,-999.0,92,-99.99,,,0.00,weatherlink.com 1.10,2014-08-21 05:58:00,
2014-08-21 02:13:00,80.8,78.0,30.07,ESE,121,0.0,-999.0,91,-99.99,,,0.00,weatherlink.com 1.10,2014-08-21 06:13:00,
2014-08-21 02:28:00,80.1,77.0,30.06,ESE,120,0.0,-999.0,91,-99.99,,,0.00,weatherlink.com 1.10,2014-08-21 06:28:00,
2014-08-21 02:43:00,79.8,78.0,30.06,ESE,120,0.0,-999.0,93,-99.99,,,0.00,weatherlink.com 1.10,2014-08-21 06:43:00,
2014-08-21 02:58:00,80.3,78.0,30.06,ESE,119,0.0,-999.0,93,-99.99,,,0.00,weatherlink.com 1.10,2014-08-21 06:58:00,
2014-08-21 03:13:00,79.9,77.0,30.05,ESE,119,0.0,-999.0,92,-99.99,,,0.00,weatherlink.com 1.10,2014-08-21 07:13:00,
2014-08-21 03:28:00,79.4,77.0,30.05,ESE,119,0.0,-999.0,93,-99.99,,,0.00,weatherlink.com 1.10,2014-08-21 07:28:00,
2014-08-21 03:43:00,79.3,78.0,30.05,ESE,120,0.0,-999.0,94,-99.99,,,0.00,weatherlink.com 1.10,2014-08-21 07:43:00,
2014-08-21 03:58:00,79.6,78.0,30.05,ESE,119,0.0,-999.0,94,-99.99,,,0.00,weatherlink.com 1.10,2014-08-21 07:58:00,
2014-08-21 04:13:00,79.3,78.0,30.04,ESE,119,0.0,-999.0,94,-99.99,,,0.00,weatherlink.com 1.10,2014-08-21 08:13:00,
2014-08-21 04:28:00,79.1,78.0,30.04,ESE,120,0.0,-999.0,95,-99.99,,,0.00,weatherlink.com 1.10,2014-08-21 08:28:00,
2014-08-21 04:43:00,79.3,78.0,30.03,ESE,120,0.0,-999.0,95,-99.99,,,0.00,weatherlink.com 1.10,2014-08-21 08:43:00,
2014-08-21 04:59:00,79.4,78.0,30.04,ESE,120,0.0,-999.0,95,-99.99,,,0.00,weatherlink.com 1.10,2014-08-21 08:59:00,
2014-08-21 05:14:00,79.2,78.0,30.04,ESE,119,0.0,-999.0,95,-99.99,,,0.00,weatherlink.com 1.10,2014-08-21 09:14:00,
2014-08-21 05:29:00,78.9,77.0,30.04,ESE,120,0.0,-999.0,95,-99.99,,,0.00,weatherlink.com 1.10,2014-08-21 09:29:00,
2014-08-21 05:44:00,78.4,77.0,30.04,ESE,119,0.0,-999.0,95,-99.99,,,0.00,weatherlink.com 1.10,2014-08-21 09:44:00,
2014-08-21 05:59:00,78.5,77.0,30.05,ESE,120,0.0,-999.0,96,-99.99,,,0.00,weatherlink.com 1.10,2014-08-21 09:59:00,
2014-08-21 06:14:00,78.7,78.0,30.05,ESE,119,0.0,-999.0,96,-99.99,,,0.00,weatherlink.com 1.10,2014-08-21 10:14:00,
2014-08-21 10:36:00,83.1,76.0,30.10,NW,313,1.0,-999.0,78,-99.99,,,0.00,weatherlink.com 1.10,2014-08-21 14:36:00,
2014-08-21 10:44:00,83.6,77.0,30.10,WNW,298,2.0,-999.0,79,-99.99,,,0.00,weatherlink.com 1.10,2014-08-21 14:44:00,
2014-08-21 10:59:00,84.5,77.0,30.10,NW,304,4.0,-999.0,79,-99.99,,,0.00,weatherlink.com 1.10,2014-08-21 14:59:00,
2014-08-21 11:14:00,87.2,79.0,30.10,NW,313,1.0,-999.0,77,-99.99,,,0.00,weatherlink.com 1.10,2014-08-21 15:14:00,
2014-08-21 11:29:00,89.3,79.0,30.10,WNW,298,0.0,-999.0,71,-99.99,,,0.00,weatherlink.com 1.10,2014-08-21 15:29:00,
2014-08-21 11:44:00,90.8,79.0,30.10,NE,43,1.0,-999.0,69,-99.99,,,0.00,weatherlink.com 1.10,2014-08-21 15:44:00,
2014-08-21 11:59:00,90.0,79.0,30.10,SSE,157,0.0,-999.0,69,-99.99,,,0.00,weatherlink.com 1.10,2014-08-21 15:59:00,
2014-08-21 12:14:00,90.2,79.0,30.10,WNW,284,0.0,-999.0,70,-99.99,,,0.00,weatherlink.com 1.10,2014-08-21 16:14:00,
2014-08-21 12:29:00,91.6,80.0,30.09,ENE,67,2.0,-999.0,68,-99.99,,,0.00,weatherlink.com 1.10,2014-08-21 16:29:00,
2014-08-21 12:44:00,87.5,80.0,30.09,NW,313,0.0,-999.0,78,-99.99,,,0.01,weatherlink.com 1.10,2014-08-21 16:44:00,
2014-08-21 12:59:00,84.6,78.0,30.10,NW,305,0.0,-999.0,81,-99.99,,,0.01,weatherlink.com 1.10,2014-08-21 16:59:00,
2014-08-21 13:14:00,83.7,77.0,30.10,WSW,257,0.0,-999.0,81,-99.99,,,0.01,weatherlink.com 1.10,2014-08-21 17:14:00,
2014-08-21 13:29:00,83.5,76.0,30.10,WSW,246,0.0,-999.0,78,-99.99,,,0.01,weatherlink.com 1.10,2014-08-21 17:29:00,